| time (UTC) | temp F | wind direction | speed MPH | gust MPH | rain 1hr in | rain 24hr in | rain mn in | humidity % | barometer mb |
| 20260503000522 | 75 | 0 | 0.0 | 3.0 | 0.00 | 0.00 | 0.00 | 35 | 1018.6 |
| 20260503000056 | 75 | 0 | 0.0 | 3.0 | 0.00 | 0.00 | 0.00 | 36 | 1018.6 |
| 20260502235521 | 75 | 0 | 0.0 | 3.0 | 0.00 | 0.00 | 0.00 | 34 | 1018.6 |
| 20260502235021 | 75 | 296 | 1.0 | 4.0 | 0.00 | 0.00 | 0.00 | 34 | 1018.6 |
| 20260502234539 | 75 | 0 | 1.0 | 5.0 | 0.00 | 0.00 | 0.00 | 33 | 1018.6 |
| 20260502234021 | 75 | 308 | 2.0 | 6.0 | 0.00 | 0.00 | 0.00 | 33 | 1018.6 |
| 20260502233521 | 76 | 324 | 2.0 | 6.0 | 0.00 | 0.00 | 0.00 | 33 | 1018.6 |
| 20260502233038 | 76 | 261 | 0.0 | 4.0 | 0.00 | 0.00 | 0.00 | 34 | 1018.7 |
| 20260502232521 | 76 | 24 | 1.0 | 4.0 | 0.00 | 0.00 | 0.00 | 32 | 1018.7 |
| 20260502232021 | 76 | 279 | 0.0 | 3.0 | 0.00 | 0.00 | 0.00 | 32 | 1018.7 |
| 20260502231540 | 77 | 314 | 0.0 | 2.0 | 0.00 | 0.00 | 0.00 | 33 | 1018.8 |
| 20260502231018 | 77 | 281 | 0.0 | 4.0 | 0.00 | 0.00 | 0.00 | 33 | 1018.8 |
| 20260502230522 | 77 | 272 | 0.0 | 4.0 | 0.00 | 0.00 | 0.00 | 32 | 1018.8 |
| 20260502230041 | 76 | 344 | 1.0 | 8.0 | 0.00 | 0.00 | 0.00 | 31 | 1018.9 |
| 20260502225520 | 76 | 243 | 1.0 | 8.0 | 0.00 | 0.00 | 0.00 | 33 | 1018.9 |
| 20260502225024 | 76 | 0 | 3.0 | 10.0 | 0.00 | 0.00 | 0.00 | 32 | 1018.9 |
| 20260502224538 | 77 | 300 | 3.0 | 10.0 | 0.00 | 0.00 | 0.00 | 32 | 1018.9 |
| 20260502224026 | 77 | 234 | 2.0 | 8.0 | 0.00 | 0.00 | 0.00 | 31 | 1018.9 |
| 20260502223522 | 76 | 323 | 1.0 | 7.0 | 0.00 | 0.00 | 0.00 | 32 | 1019.0 |
| 20260502223038 | 77 | 25 | 3.0 | 7.0 | 0.00 | 0.00 | 0.00 | 32 | 1019.1 |
| 20260502222521 | 76 | 336 | 1.0 | 5.0 | 0.00 | 0.00 | 0.00 | 32 | 1019.1 |
| 20260502222025 | 76 | 319 | 1.0 | 7.0 | 0.00 | 0.00 | 0.00 | 33 | 1019.2 |
| 20260502221538 | 76 | 334 | 2.0 | 7.0 | 0.00 | 0.00 | 0.00 | 32 | 1019.2 |
| 20260502221021 | 76 | 59 | 1.0 | 4.0 | 0.00 | 0.00 | 0.00 | 32 | 1019.3 |
| 20260502220521 | 77 | 151 | 1.0 | 9.0 | 0.00 | 0.00 | 0.00 | 32 | 1019.2 |
| 20260502220047 | 77 | 352 | 2.0 | 9.0 | 0.00 | 0.00 | 0.00 | 32 | 1019.3 |
| 20260502215521 | 77 | 326 | 2.0 | 8.0 | 0.00 | 0.00 | 0.00 | 32 | 1019.3 |
| 20260502215020 | 78 | 338 | 2.0 | 8.0 | 0.00 | 0.00 | 0.00 | 32 | 1019.4 |
| 20260502214535 | 76 | 130 | 1.0 | 8.0 | 0.00 | 0.00 | 0.00 | 31 | 1019.5 |
| 20260502214022 | 76 | 37 | 2.0 | 9.0 | 0.00 | 0.00 | 0.00 | 31 | 1019.5 |
| 20260502213521 | 77 | 51 | 3.0 | 9.0 | 0.00 | 0.00 | 0.00 | 31 | 1019.5 |
| 20260502213040 | 77 | 327 | 2.0 | 8.0 | 0.00 | 0.00 | 0.00 | 31 | 1019.7 |
| 20260502212523 | 76 | 38 | 3.0 | 8.0 | 0.00 | 0.00 | 0.00 | 31 | 1019.6 |
| 20260502212023 | 76 | 53 | 1.0 | 9.0 | 0.00 | 0.00 | 0.00 | 29 | 1019.7 |
| 20260502211538 | 76 | 333 | 2.0 | 9.0 | 0.00 | 0.00 | 0.00 | 31 | 1019.7 |
| 20260502211020 | 76 | 289 | 3.0 | 10.0 | 0.00 | 0.00 | 0.00 | 29 | 1019.8 |
| 20260502210517 | 76 | 323 | 3.0 | 10.0 | 0.00 | 0.00 | 0.00 | 29 | 1019.9 |
| 20260502210038 | 76 | 352 | 3.0 | 12.0 | 0.00 | 0.00 | 0.00 | 30 | 1020.0 |
| 20260502205523 | 77 | 295 | 3.0 | 12.0 | 0.00 | 0.00 | 0.00 | 30 | 1020.0 |
| 20260502205021 | 77 | 352 | 2.0 | 12.0 | 0.00 | 0.00 | 0.00 | 30 | 1020.1 |
| 20260502204541 | 76 | 331 | 5.0 | 11.0 | 0.00 | 0.00 | 0.00 | 30 | 1020.2 |
| 20260502204024 | 76 | 44 | 4.0 | 11.0 | 0.00 | 0.00 | 0.00 | 31 | 1020.1 |
| 20260502203521 | 76 | 338 | 3.0 | 9.0 | 0.00 | 0.00 | 0.00 | 30 | 1020.2 |
| 20260502203038 | 76 | 260 | 1.0 | 9.0 | 0.00 | 0.00 | 0.00 | 30 | 1020.2 |
| 20260502202521 | 76 | 250 | 2.0 | 6.0 | 0.00 | 0.00 | 0.00 | 30 | 1020.4 |
| 20260502202021 | 75 | 187 | 2.0 | 9.0 | 0.00 | 0.00 | 0.00 | 30 | 1020.4 |
| 20260502201537 | 75 | 0 | 2.0 | 9.0 | 0.00 | 0.00 | 0.00 | 30 | 1020.4 |
| 20260502201023 | 76 | 328 | 2.0 | 8.0 | 0.00 | 0.00 | 0.00 | 31 | 1020.6 |
| 20260502200521 | 76 | 352 | 3.0 | 8.0 | 0.00 | 0.00 | 0.00 | 29 | 1020.7 |
| 20260502200036 | 76 | 334 | 1.0 | 8.0 | 0.00 | 0.00 | 0.00 | 31 | 1020.7 |
| 20260502195521 | 76 | 298 | 2.0 | 10.0 | 0.00 | 0.00 | 0.00 | 31 | 1020.7 |
| 20260502195021 | 75 | 350 | 5.0 | 10.0 | 0.00 | 0.00 | 0.00 | 31 | 1020.6 |
| 20260502194540 | 75 | 12 | 1.0 | 8.0 | 0.00 | 0.00 | 0.00 | 30 | 1020.7 |
| 20260502194017 | 75 | 333 | 3.0 | 9.0 | 0.00 | 0.00 | 0.00 | 30 | 1020.7 |
| 20260502193521 | 75 | 305 | 3.0 | 9.0 | 0.00 | 0.00 | 0.00 | 32 | 1020.7 |
| 20260502193047 | 74 | 42 | 3.0 | 8.0 | 0.00 | 0.00 | 0.00 | 30 | 1020.8 |
| 20260502192517 | 74 | 31 | 1.0 | 8.0 | 0.00 | 0.00 | 0.00 | 30 | 1020.8 |
| 20260502192020 | 74 | 321 | 2.0 | 8.0 | 0.00 | 0.00 | 0.00 | 30 | 1020.9 |
| 20260502191543 | 74 | 332 | 1.0 | 6.0 | 0.00 | 0.00 | 0.00 | 30 | 1021.0 |
| 20260502191023 | 75 | 53 | 2.0 | 10.0 | 0.00 | 0.00 | 0.00 | 32 | 1021.0 |
| 20260502190521 | 75 | 325 | 4.0 | 10.0 | 0.00 | 0.00 | 0.00 | 30 | 1021.1 |
| 20260502190039 | 75 | 347 | 3.0 | 10.0 | 0.00 | 0.00 | 0.00 | 31 | 1021.2 |
| 20260502185517 | 75 | 254 | 4.0 | 9.0 | 0.00 | 0.00 | 0.00 | 30 | 1021.3 |
| 20260502185019 | 75 | 348 | 3.0 | 8.0 | 0.00 | 0.00 | 0.00 | 31 | 1021.2 |
| 20260502184536 | 74 | 5 | 2.0 | 8.0 | 0.00 | 0.00 | 0.00 | 31 | 1021.3 |
| 20260502184021 | 75 | 9 | 1.0 | 8.0 | 0.00 | 0.00 | 0.00 | 30 | 1021.4 |
| 20260502183520 | 74 | 347 | 3.0 | 8.0 | 0.00 | 0.00 | 0.00 | 31 | 1021.5 |
| 20260502183035 | 74 | 13 | 2.0 | 8.0 | 0.00 | 0.00 | 0.00 | 30 | 1021.5 |
| 20260502182520 | 74 | 0 | 1.0 | 7.0 | 0.00 | 0.00 | 0.00 | 31 | 1021.5 |
| 20260502182022 | 74 | 344 | 2.0 | 7.0 | 0.00 | 0.00 | 0.00 | 31 | 1021.5 |
| 20260502181544 | 74 | 336 | 3.0 | 6.0 | 0.00 | 0.00 | 0.00 | 30 | 1021.6 |
| 20260502181017 | 74 | 148 | 3.0 | 6.0 | 0.00 | 0.00 | 0.00 | 30 | 1021.7 |
| 20260502180523 | 74 | 89 | 0.0 | 8.0 | 0.00 | 0.00 | 0.00 | 30 | 1021.7 |
| 20260502164018 | 71 | 273 | 2.0 | 5.0 | 0.00 | 0.00 | 0.00 | 35 | 1022.5 |
| 20260502163517 | 70 | 318 | 1.0 | 8.0 | 0.00 | 0.00 | 0.00 | 37 | 1022.5 |
| 20260502163044 | 70 | 15 | 3.0 | 7.0 | 0.00 | 0.00 | 0.00 | 34 | 1022.5 |
| 20260502162518 | 70 | 191 | 2.0 | 7.0 | 0.00 | 0.00 | 0.00 | 33 | 1022.5 |
| 20260502162018 | 70 | 0 | 1.0 | 8.0 | 0.00 | 0.00 | 0.00 | 35 | 1022.4 |
| 20260502161556 | 70 | 61 | 3.0 | 8.0 | 0.00 | 0.00 | 0.00 | 35 | 1022.4 |
| 20260502161031 | 70 | 301 | 3.0 | 8.0 | 0.00 | 0.00 | 0.00 | 35 | 1022.5 |
| 20260502160517 | 70 | 5 | 3.0 | 8.0 | 0.00 | 0.00 | 0.00 | 34 | 1022.4 |
| 20260502152021 | 67 | 5 | 2.0 | 5.0 | 0.00 | 0.00 | 0.00 | 42 | 1022.2 |
| 20260502151538 | 67 | 311 | 2.0 | 5.0 | 0.00 | 0.00 | 0.00 | 44 | 1022.2 |
| 20260502151020 | 67 | 317 | 2.0 | 5.0 | 0.00 | 0.00 | 0.00 | 44 | 1022.2 |
| 20260502150518 | 66 | 285 | 2.0 | 5.0 | 0.00 | 0.00 | 0.00 | 47 | 1022.1 |
| 20260502130522 | 55 | 319 | 1.0 | 3.0 | 0.00 | 0.00 | 0.00 | 72 | 1021.4 |
| 20260502123518 | 52 | 304 | 1.0 | 2.0 | 0.00 | 0.00 | 0.00 | 83 | 1021.0 |
| 20260502123108 | 52 | 315 | 1.0 | 3.0 | 0.00 | 0.00 | 0.00 | 85 | 1020.9 |
| 20260502122523 | 51 | 307 | 1.0 | 3.0 | 0.00 | 0.00 | 0.00 | 86 | 1020.8 |
| 20260502122027 | 51 | 351 | 1.0 | 2.0 | 0.00 | 0.00 | 0.00 | 87 | 1020.8 |
| 20260502121538 | 51 | 308 | 1.0 | 2.0 | 0.00 | 0.00 | 0.00 | 87 | 1020.7 |
| 20260502121022 | 51 | 310 | 1.0 | 3.0 | 0.00 | 0.00 | 0.00 | 87 | 1020.6 |
| 20260502120525 | 51 | 0 | 1.0 | 3.0 | 0.00 | 0.00 | 0.00 | 87 | 1020.5 |
| 20260502115525 | 51 | 304 | 1.0 | 3.0 | 0.00 | 0.00 | 0.00 | 86 | 1020.3 |
| 20260502115021 | 51 | 298 | 1.0 | 3.0 | 0.00 | 0.00 | 0.00 | 87 | 1020.2 |
| 20260502114540 | 51 | 292 | 1.0 | 3.0 | 0.00 | 0.00 | 0.00 | 87 | 1020.2 |
| 20260502114018 | 51 | 313 | 2.0 | 3.0 | 0.00 | 0.00 | 0.00 | 87 | 1020.1 |
| 20260502113518 | 51 | 306 | 2.0 | 3.0 | 0.00 | 0.00 | 0.00 | 87 | 1020.0 |
| 20260502113034 | 51 | 311 | 1.0 | 3.0 | 0.00 | 0.00 | 0.00 | 87 | 1020.0 |
| 20260502112518 | 51 | 301 | 1.0 | 3.0 | 0.00 | 0.00 | 0.00 | 87 | 1019.9 |
| 20260502112019 | 51 | 333 | 1.0 | 3.0 | 0.00 | 0.00 | 0.00 | 86 | 1019.8 |
| 20260502111533 | 51 | 315 | 1.0 | 4.0 | 0.00 | 0.00 | 0.00 | 87 | 1019.9 |
| 20260502111018 | 51 | 296 | 2.0 | 4.0 | 0.00 | 0.00 | 0.00 | 87 | 1019.9 |
| 20260502110521 | 51 | 307 | 2.0 | 4.0 | 0.00 | 0.00 | 0.00 | 87 | 1019.9 |
| 20260502110046 | 51 | 308 | 2.0 | 4.0 | 0.00 | 0.00 | 0.00 | 86 | 1019.8 |
| 20260502105518 | 51 | 315 | 2.0 | 4.0 | 0.00 | 0.00 | 0.00 | 86 | 1019.8 |
| 20260502105020 | 51 | 315 | 2.0 | 4.0 | 0.00 | 0.00 | 0.00 | 86 | 1019.6 |
| 20260502104538 | 52 | 303 | 2.0 | 4.0 | 0.00 | 0.00 | 0.00 | 86 | 1019.5 |
| 20260502104018 | 52 | 301 | 1.0 | 3.0 | 0.00 | 0.00 | 0.00 | 85 | 1019.4 |
| 20260502103517 | 52 | 315 | 1.0 | 3.0 | 0.00 | 0.00 | 0.00 | 85 | 1019.3 |
| 20260502103038 | 52 | 309 | 1.0 | 3.0 | 0.00 | 0.00 | 0.00 | 85 | 1019.2 |
| 20260502102518 | 52 | 313 | 1.0 | 3.0 | 0.00 | 0.00 | 0.00 | 85 | 1019.2 |
| 20260502102030 | 52 | 311 | 1.0 | 3.0 | 0.00 | 0.00 | 0.00 | 85 | 1019.0 |
| 20260502101545 | 52 | 311 | 1.0 | 4.0 | 0.00 | 0.00 | 0.00 | 85 | 1019.1 |
| 20260502101020 | 52 | 319 | 1.0 | 4.0 | 0.00 | 0.00 | 0.00 | 85 | 1019.1 |
| 20260502100518 | 52 | 319 | 1.0 | 3.0 | 0.00 | 0.00 | 0.00 | 85 | 1019.1 |
| 20260502091019 | 53 | 296 | 1.0 | 4.0 | 0.00 | 0.00 | 0.00 | 84 | 1019.1 |
| 20260502090518 | 53 | 298 | 1.0 | 4.0 | 0.00 | 0.00 | 0.00 | 84 | 1019.1 |
| 20260502071024 | 55 | 292 | 2.0 | 4.0 | 0.00 | 0.00 | 0.00 | 80 | 1019.2 |
| 20260502070525 | 55 | 329 | 1.0 | 3.0 | 0.00 | 0.00 | 0.00 | 80 | 1019.2 |
| 20260502070036 | 55 | 291 | 1.0 | 4.0 | 0.00 | 0.00 | 0.00 | 80 | 1019.3 |
| 20260502065518 | 55 | 310 | 2.0 | 4.0 | 0.00 | 0.00 | 0.00 | 80 | 1019.3 |
| 20260502065022 | 55 | 318 | 1.0 | 4.0 | 0.00 | 0.00 | 0.00 | 79 | 1019.4 |
| 20260502064543 | 55 | 302 | 1.0 | 3.0 | 0.00 | 0.00 | 0.00 | 79 | 1019.4 |
| 20260502064021 | 55 | 304 | 1.0 | 4.0 | 0.00 | 0.00 | 0.00 | 79 | 1019.4 |
| 20260502063522 | 55 | 315 | 1.0 | 4.0 | 0.00 | 0.00 | 0.00 | 78 | 1019.4 |
| 20260502063052 | 55 | 302 | 1.0 | 5.0 | 0.00 | 0.00 | 0.00 | 78 | 1019.4 |
| 20260502062523 | 55 | 302 | 2.0 | 5.0 | 0.00 | 0.00 | 0.00 | 79 | 1019.4 |
| 20260502062022 | 55 | 319 | 1.0 | 3.0 | 0.00 | 0.00 | 0.00 | 79 | 1019.4 |
| 20260502061538 | 55 | 302 | 1.0 | 3.0 | 0.00 | 0.00 | 0.00 | 80 | 1019.4 |
| 20260502061022 | 55 | 309 | 1.0 | 3.0 | 0.00 | 0.00 | 0.00 | 81 | 1019.4 |
| 20260502060522 | 55 | 286 | 1.0 | 2.0 | 0.00 | 0.00 | 0.00 | 81 | 1019.3 |
| 20260502060042 | 55 | 286 | 0.0 | 2.0 | 0.00 | 0.00 | 0.00 | 81 | 1019.3 |
| 20260502055522 | 55 | 288 | 0.0 | 2.0 | 0.00 | 0.01 | 0.00 | 81 | 1019.4 |
| 20260502055023 | 55 | 0 | 0.0 | 1.0 | 0.00 | 0.01 | 0.00 | 81 | 1019.4 |
| 20260502054538 | 55 | 0 | 0.0 | 1.0 | 0.00 | 0.01 | 0.00 | 80 | 1019.4 |
| 20260502054022 | 55 | 0 | 0.0 | 1.0 | 0.00 | 0.01 | 0.00 | 80 | 1019.5 |
| 20260502053522 | 56 | 0 | 0.0 | 1.0 | 0.00 | 0.01 | 0.00 | 79 | 1019.5 |
| 20260502053040 | 56 | 0 | 0.0 | 1.0 | 0.00 | 0.01 | 0.00 | 80 | 1019.5 |
| 20260502052522 | 56 | 0 | 0.0 | 1.0 | 0.00 | 0.01 | 0.00 | 80 | 1019.3 |
| 20260502052019 | 56 | 0 | 0.0 | 2.0 | 0.00 | 0.01 | 0.00 | 79 | 1019.2 |
| 20260502051536 | 56 | 0 | 0.0 | 2.0 | 0.00 | 0.01 | 0.00 | 79 | 1019.3 |
| 20260502051021 | 56 | 160 | 0.0 | 1.0 | 0.00 | 0.01 | 0.00 | 79 | 1019.4 |
| 20260502050521 | 56 | 0 | 0.0 | 1.0 | 0.00 | 0.01 | 0.00 | 79 | 1019.5 |
| 20260502050040 | 56 | 0 | 0.0 | 1.0 | 0.00 | 0.01 | 0.00 | 78 | 1019.4 |
| 20260502045522 | 56 | 0 | 0.0 | 1.0 | 0.00 | 0.01 | 0.01 | 78 | 1019.3 |
| 20260502045025 | 56 | 0 | 0.0 | 1.0 | 0.00 | 0.01 | 0.01 | 78 | 1019.3 |
| 20260502044537 | 56 | 160 | 0.0 | 1.0 | 0.00 | 0.01 | 0.01 | 79 | 1019.3 |
| 20260502044024 | 57 | 0 | 0.0 | 2.0 | 0.00 | 0.01 | 0.01 | 78 | 1019.2 |
| 20260502043523 | 57 | 0 | 0.0 | 2.0 | 0.00 | 0.01 | 0.01 | 78 | 1019.1 |
| 20260502043038 | 57 | 0 | 0.0 | 1.0 | 0.00 | 0.01 | 0.01 | 77 | 1019.2 |
| 20260502042522 | 57 | 0 | 0.0 | 1.0 | 0.00 | 0.01 | 0.01 | 76 | 1019.2 |
| 20260502042023 | 57 | 160 | 0.0 | 1.0 | 0.00 | 0.01 | 0.01 | 76 | 1019.2 |
| 20260502041537 | 58 | 0 | 0.0 | 1.0 | 0.00 | 0.01 | 0.01 | 75 | 1019.2 |
| 20260502041022 | 58 | 0 | 0.0 | 1.0 | 0.00 | 0.01 | 0.01 | 75 | 1019.1 |
| 20260502040522 | 58 | 0 | 0.0 | 1.0 | 0.00 | 0.01 | 0.01 | 74 | 1019.1 |
| 20260502040036 | 58 | 0 | 0.0 | 1.0 | 0.00 | 0.01 | 0.01 | 74 | 1019.0 |
| 20260502035522 | 58 | 0 | 0.0 | 0.0 | 0.00 | 0.01 | 0.01 | 74 | 1019.1 |
| 20260502035022 | 58 | 0 | 0.0 | 0.0 | 0.00 | 0.01 | 0.01 | 73 | 1019.1 |
| 20260502034538 | 59 | 0 | 0.0 | 0.0 | 0.00 | 0.01 | 0.01 | 73 | 1019.1 |
| 20260502034022 | 59 | 0 | 0.0 | 1.0 | 0.00 | 0.01 | 0.01 | 72 | 1019.0 |
| 20260502033521 | 59 | 0 | 0.0 | 1.0 | 0.00 | 0.01 | 0.01 | 72 | 1019.1 |
| 20260502033044 | 59 | 0 | 0.0 | 1.0 | 0.00 | 0.01 | 0.01 | 71 | 1019.0 |
| 20260502032518 | 59 | 0 | 0.0 | 1.0 | 0.00 | 0.01 | 0.01 | 71 | 1019.1 |
| 20260502032021 | 59 | 0 | 0.0 | 1.0 | 0.00 | 0.01 | 0.01 | 71 | 1019.0 |
| 20260502031538 | 59 | 0 | 0.0 | 1.0 | 0.00 | 0.01 | 0.01 | 71 | 1019.0 |
| 20260502031021 | 59 | 0 | 0.0 | 1.0 | 0.00 | 0.01 | 0.01 | 71 | 1019.0 |
| 20260502030522 | 59 | 0 | 0.0 | 1.0 | 0.00 | 0.01 | 0.01 | 70 | 1018.9 |
| 20260502030039 | 60 | 0 | 0.0 | 1.0 | 0.00 | 0.01 | 0.01 | 70 | 1018.7 |
| 20260502025521 | 60 | 0 | 0.0 | 1.0 | 0.00 | 0.01 | 0.01 | 69 | 1018.6 |
| 20260502025024 | 60 | 0 | 0.0 | 1.0 | 0.00 | 0.01 | 0.01 | 69 | 1018.6 |
| 20260502024550 | 60 | 0 | 0.0 | 1.0 | 0.00 | 0.01 | 0.01 | 68 | 1018.6 |
| 20260502024022 | 61 | 0 | 0.0 | 0.0 | 0.00 | 0.01 | 0.01 | 68 | 1018.7 |
| 20260502023522 | 61 | 0 | 0.0 | 1.0 | 0.00 | 0.01 | 0.01 | 67 | 1018.7 |
| 20260502023036 | 61 | 0 | 0.0 | 1.0 | 0.00 | 0.01 | 0.01 | 67 | 1018.6 |
| 20260502022522 | 61 | 0 | 0.0 | 1.0 | 0.00 | 0.01 | 0.01 | 67 | 1018.6 |
| 20260502022021 | 61 | 0 | 0.0 | 0.0 | 0.00 | 0.01 | 0.01 | 67 | 1018.6 |
| 20260502021539 | 61 | 0 | 0.0 | 1.0 | 0.00 | 0.01 | 0.01 | 66 | 1018.4 |
| 20260502021021 | 61 | 0 | 0.0 | 1.0 | 0.00 | 0.01 | 0.01 | 66 | 1018.4 |
| 20260502020522 | 61 | 0 | 0.0 | 1.0 | 0.00 | 0.01 | 0.01 | 66 | 1018.2 |
| 20260502020039 | 61 | 0 | 0.0 | 1.0 | 0.00 | 0.01 | 0.01 | 66 | 1018.1 |
| 20260502015522 | 61 | 0 | 0.0 | 1.0 | 0.00 | 0.01 | 0.01 | 65 | 1017.9 |
| 20260502015023 | 61 | 0 | 0.0 | 1.0 | 0.00 | 0.01 | 0.01 | 65 | 1017.9 |
| 20260502014538 | 61 | 0 | 0.0 | 2.0 | 0.00 | 0.01 | 0.01 | 65 | 1017.7 |
| 20260502014021 | 61 | 0 | 0.0 | 4.0 | 0.00 | 0.01 | 0.01 | 64 | 1017.7 |
| 20260502013521 | 62 | 175 | 1.0 | 4.0 | 0.00 | 0.01 | 0.01 | 65 | 1017.5 |
| 20260502013038 | 62 | 0 | 0.0 | 2.0 | 0.00 | 0.01 | 0.01 | 64 | 1017.3 |
| 20260502012521 | 62 | 162 | 0.0 | 3.0 | 0.00 | 0.01 | 0.01 | 64 | 1017.2 |
| 20260502012026 | 62 | 155 | 0.0 | 3.0 | 0.00 | 0.01 | 0.01 | 64 | 1017.2 |
| 20260502011536 | 62 | 0 | 0.0 | 2.0 | 0.00 | 0.01 | 0.01 | 64 | 1017.1 |
| 20260502011021 | 62 | 174 | 0.0 | 3.0 | 0.00 | 0.01 | 0.01 | 64 | 1017.1 |
| 20260502010522 | 62 | 164 | 0.0 | 3.0 | 0.00 | 0.01 | 0.01 | 63 | 1017.0 |
| 20260502010047 | 62 | 0 | 0.0 | 2.0 | 0.00 | 0.01 | 0.01 | 63 | 1016.9 |
| 20260502005522 | 62 | 0 | 0.0 | 3.0 | 0.00 | 0.01 | 0.01 | 63 | 1016.9 |
| 20260502005023 | 63 | 0 | 0.0 | 3.0 | 0.00 | 0.01 | 0.01 | 62 | 1016.8 |
| 20260502004553 | 63 | 0 | 0.0 | 3.0 | 0.00 | 0.01 | 0.01 | 62 | 1016.9 |
| 20260502004023 | 63 | 155 | 0.0 | 2.0 | 0.00 | 0.01 | 0.01 | 62 | 1016.7 |
| 20260502003522 | 63 | 175 | 0.0 | 4.0 | 0.00 | 0.01 | 0.01 | 61 | 1016.7 |
| 20260502003038 | 63 | 190 | 1.0 | 4.0 | 0.00 | 0.01 | 0.01 | 61 | 1016.6 |
| 20260502002521 | 63 | 153 | 0.0 | 4.0 | 0.00 | 0.01 | 0.01 | 61 | 1016.5 |
| 20260502002021 | 63 | 163 | 1.0 | 4.0 | 0.00 | 0.01 | 0.01 | 62 | 1016.4 |
| 20260502001538 | 63 | 0 | 0.0 | 3.0 | 0.00 | 0.01 | 0.01 | 61 | 1016.3 |
| 20260502001022 | 63 | 0 | 0.0 | 2.0 | 0.00 | 0.01 | 0.01 | 61 | 1016.2 |